Location: Ch�risy
(50.2331°N, 2.9131°E)
Time: 20:14:03
(UTC+00:00)

Lacrosse 5 - Pass Details

Date: 17 January 2021
Orbit: 715 x 724 km, 57.0° (Epoch: 26 February)

Event Time Altitude Azimuth Distance (km) Brightness Sun altitude
Rises 16:45:44 0° 289° (WNW) 3,122 5.9 -4.8°
Reaches altitude 10° 16:48:16 10° 297° (WNW) 2,201 4.9 -5.1°
Maximum altitude 16:53:01 39° 6° (N) 1,066 2.5 -5.8°
Drops below altitude 10° 16:57:46 10° 76° (ENE) 2,200 3.7 -6.5°
Enters shadow 16:58:24 - 78° (ENE) 2,427 4.0 -6.6°
